Time,TemperatureF,DewpointF,PressureIn,WindDirection,WindDirectionDegrees,WindSpeedMPH,WindSpeedGustMPH,Humidity,HourlyPrecipIn,Conditions,Clouds,dailyrainin,SolarRadiationWatts/m^2,SoftwareType,DateUTC
2013-02-13 00:00:00,10.5,4.2,30.71,SSE,150,2.0,2.0,75,0.00,,,0.06,0,LWC V2.00 B727,2013-02-13 07:00:00,
2013-02-13 00:05:00,10.7,4.4,30.71,SSE,149,1.0,2.0,75,0.00,,,0.00,0,LWC V2.00 B727,2013-02-13 07:05:00,
2013-02-13 00:10:00,10.8,4.2,30.72,SSE,150,1.0,2.0,74,0.00,,,0.00,0,LWC V2.00 B727,2013-02-13 07:10:00,
2013-02-13 00:15:00,10.9,4.3,30.72,SSE,152,0.0,2.0,74,0.00,,,0.00,0,LWC V2.00 B727,2013-02-13 07:15:00,
2013-02-13 00:20:00,11.0,4.4,30.72,SSE,152,3.0,3.0,74,0.00,,,0.00,0,LWC V2.00 B727,2013-02-13 07:20:00,
2013-02-13 00:25:00,10.9,4.3,30.72,SE,145,1.0,2.0,74,0.00,,,0.00,0,LWC V2.00 B727,2013-02-13 07:25:00,
2013-02-13 00:30:00,10.7,3.8,30.73,SE,146,1.0,2.0,73,0.00,,,0.00,0,LWC V2.00 B727,2013-02-13 07:30:00,
2013-02-13 00:35:00,10.3,3.4,30.72,SE,146,1.0,2.0,73,0.00,,,0.00,0,LWC V2.00 B727,2013-02-13 07:35:00,
2013-02-13 00:40:00,10.2,3.6,30.73,SSE,148,1.0,1.0,74,0.00,,,0.00,0,LWC V2.00 B727,2013-02-13 07:40:00,
2013-02-13 00:45:00,10.3,3.7,30.73,SSE,148,0.0,1.0,74,0.00,,,0.00,0,LWC V2.00 B727,2013-02-13 07:45:00,
2013-02-13 00:50:00,10.3,3.7,30.73,SSE,148,0.0,2.0,74,0.00,,,0.00,0,LWC V2.00 B727,2013-02-13 07:50:00,
2013-02-13 00:52:00,10.3,3.7,30.73,SSE,148,0.0,1.0,74,0.00,,,0.00,0,LWC V2.00 B727,2013-02-13 07:52:00,
2013-02-13 00:57:00,10.3,3.7,30.73,SSE,148,1.0,2.0,74,0.00,,,0.00,0,LWC V2.00 B727,2013-02-13 07:57:00,
2013-02-13 01:02:00,10.3,3.7,30.73,SSE,148,0.0,2.0,74,0.00,,,0.00,0,LWC V2.00 B727,2013-02-13 08:02:00,
2013-02-13 01:07:00,10.1,3.8,30.73,SSE,153,1.0,3.0,75,0.00,,,0.00,0,LWC V2.00 B727,2013-02-13 08:07:00,
2013-02-13 01:12:00,10.0,3.7,30.73,SSE,160,3.0,3.0,75,0.00,,,0.00,0,LWC V2.00 B727,2013-02-13 08:12:00,
2013-02-13 01:17:00,10.1,3.5,30.73,SSE,155,1.0,2.0,74,0.00,,,0.00,0,LWC V2.00 B727,2013-02-13 08:17:00,
2013-02-13 01:22:00,10.1,3.5,30.73,SSE,152,1.0,3.0,74,0.00,,,0.00,0,LWC V2.00 B727,2013-02-13 08:22:00,
2013-02-13 01:27:00,10.1,3.5,30.73,SSE,152,0.0,1.0,74,0.00,,,0.00,0,LWC V2.00 B727,2013-02-13 08:27:00,
2013-02-13 01:32:00,9.9,3.3,30.74,SSE,153,2.0,2.0,74,0.00,,,0.00,0,LWC V2.00 B727,2013-02-13 08:32:00,
2013-02-13 01:37:00,9.7,3.4,30.74,SSE,153,0.0,2.0,75,0.00,,,0.00,0,LWC V2.00 B727,2013-02-13 08:37:00,
2013-02-13 01:42:00,9.6,3.3,30.74,SSE,153,1.0,2.0,75,0.00,,,0.00,0,LWC V2.00 B727,2013-02-13 08:42:00,
2013-02-13 01:47:00,9.6,3.0,30.74,SSE,153,0.0,1.0,74,0.00,,,0.00,0,LWC V2.00 B727,2013-02-13 08:47:00,
2013-02-13 01:52:00,9.2,2.3,30.74,SSE,153,0.0,1.0,73,0.00,,,0.00,0,LWC V2.00 B727,2013-02-13 08:52:00,
2013-02-13 01:57:00,9.1,2.2,30.73,SSE,153,0.0,1.0,73,0.00,,,0.00,0,LWC V2.00 B727,2013-02-13 08:57:00,
2013-02-13 02:02:00,9.0,2.4,30.73,SSE,153,0.0,1.0,74,0.00,,,0.00,0,LWC V2.00 B727,2013-02-13 09:02:00,
2013-02-13 02:07:00,9.0,2.4,30.74,SSE,153,0.0,0.0,74,0.00,,,0.00,0,LWC V2.00 B727,2013-02-13 09:07:00,
2013-02-13 02:12:00,8.9,2.3,30.74,SSE,153,0.0,0.0,74,0.00,,,0.00,0,LWC V2.00 B727,2013-02-13 09:12:00,
2013-02-13 02:17:00,8.7,1.8,30.74,SSE,153,0.0,0.0,73,0.00,,,0.00,0,LWC V2.00 B727,2013-02-13 09:17:00,
2013-02-13 02:22:00,8.5,1.4,30.73,SSE,153,0.0,0.0,72,0.00,,,0.00,0,LWC V2.00 B727,2013-02-13 09:22:00,
2013-02-13 02:27:00,8.1,1.0,30.73,SSE,153,0.0,0.0,72,0.00,,,0.00,0,LWC V2.00 B727,2013-02-13 09:27:00,
2013-02-13 02:32:00,7.7,0.6,30.73,SSE,153,0.0,1.0,72,0.00,,,0.00,0,LWC V2.00 B727,2013-02-13 09:32:00,
2013-02-13 02:37:00,7.3,0.8,30.73,SSE,153,0.0,0.0,74,0.00,,,0.00,0,LWC V2.00 B727,2013-02-13 09:37:00,
2013-02-13 02:42:00,7.3,1.1,30.73,SSE,153,0.0,0.0,75,0.00,,,0.00,0,LWC V2.00 B727,2013-02-13 09:42:00,
2013-02-13 02:47:00,7.2,1.0,30.73,SSE,153,0.0,1.0,75,0.00,,,0.00,0,LWC V2.00 B727,2013-02-13 09:47:00,
2013-02-13 02:52:00,7.1,0.9,30.73,SSE,153,0.0,2.0,75,0.00,,,0.00,0,LWC V2.00 B727,2013-02-13 09:52:00,
2013-02-13 02:57:00,7.1,0.9,30.73,SSE,153,0.0,0.0,75,0.00,,,0.00,0,LWC V2.00 B727,2013-02-13 09:57:00,
2013-02-13 03:02:00,7.1,0.9,30.73,SSE,153,0.0,0.0,75,0.00,,,0.00,0,LWC V2.00 B727,2013-02-13 10:02:00,
2013-02-13 03:07:00,7.0,1.1,30.73,SSE,153,0.0,1.0,76,0.00,,,0.00,0,LWC V2.00 B727,2013-02-13 10:07:00,
2013-02-13 03:12:00,7.3,1.4,30.73,SSE,153,1.0,2.0,76,0.00,,,0.00,0,LWC V2.00 B727,2013-02-13 10:12:00,
2013-02-13 03:17:00,7.8,1.8,30.72,SSE,153,1.0,2.0,76,0.00,,,0.00,0,LWC V2.00 B727,2013-02-13 10:17:00,
2013-02-13 03:22:00,8.2,1.9,30.72,SSE,153,1.0,1.0,75,0.00,,,0.00,0,LWC V2.00 B727,2013-02-13 10:22:00,
2013-02-13 03:27:00,8.7,2.1,30.72,SSE,154,3.0,3.0,74,0.00,,,0.00,0,LWC V2.00 B727,2013-02-13 10:27:00,
2013-02-13 03:32:00,9.0,2.1,30.72,SSE,154,1.0,2.0,73,0.00,,,0.00,0,LWC V2.00 B727,2013-02-13 10:32:00,
2013-02-13 03:37:00,9.1,1.9,30.72,SSE,153,1.0,2.0,72,0.00,,,0.00,0,LWC V2.00 B727,2013-02-13 10:37:00,
2013-02-13 03:42:00,9.0,1.8,30.72,SSE,154,0.0,2.0,72,0.00,,,0.00,0,LWC V2.00 B727,2013-02-13 10:42:00,
2013-02-13 03:47:00,9.1,1.9,30.71,SSE,154,0.0,2.0,72,0.00,,,0.00,0,LWC V2.00 B727,2013-02-13 10:47:00,
2013-02-13 03:52:00,9.5,2.0,30.71,South,181,1.0,5.0,71,0.00,,,0.00,0,LWC V2.00 B727,2013-02-13 10:52:00,
2013-02-13 03:57:00,9.2,1.4,30.72,South,181,1.0,2.0,70,0.00,,,0.00,0,LWC V2.00 B727,2013-02-13 10:57:00,
2013-02-13 04:02:00,8.8,1.0,30.72,South,180,2.0,3.0,70,0.00,,,0.00,0,LWC V2.00 B727,2013-02-13 11:02:00,
2013-02-13 04:07:00,8.5,1.1,30.71,South,181,1.0,2.0,71,0.00,,,0.00,0,LWC V2.00 B727,2013-02-13 11:07:00,
2013-02-13 04:12:00,8.6,1.5,30.72,South,180,2.0,3.0,72,0.00,,,0.00,0,LWC V2.00 B727,2013-02-13 11:12:00,
2013-02-13 04:17:00,8.4,1.0,30.72,South,182,3.0,3.0,71,0.00,,,0.00,0,LWC V2.00 B727,2013-02-13 11:17:00,
2013-02-13 04:22:00,8.3,1.2,30.71,South,182,2.0,3.0,72,0.00,,,0.00,0,LWC V2.00 B727,2013-02-13 11:22:00,
2013-02-13 04:27:00,8.5,1.4,30.71,South,180,2.0,4.0,72,0.00,,,0.00,0,LWC V2.00 B727,2013-02-13 11:27:00,
2013-02-13 04:32:00,8.6,1.5,30.71,South,175,2.0,3.0,72,0.00,,,0.00,0,LWC V2.00 B727,2013-02-13 11:32:00,
2013-02-13 04:37:00,8.8,1.6,30.71,South,173,2.0,2.0,72,0.00,,,0.00,0,LWC V2.00 B727,2013-02-13 11:37:00,
2013-02-13 04:42:00,9.0,1.8,30.71,South,171,2.0,2.0,72,0.00,,,0.00,0,LWC V2.00 B727,2013-02-13 11:42:00,
2013-02-13 04:47:00,9.1,1.6,30.71,South,171,0.0,2.0,71,0.00,,,0.00,0,LWC V2.00 B727,2013-02-13 11:47:00,
2013-02-13 04:52:00,9.1,1.6,30.71,South,171,1.0,1.0,71,0.00,,,0.00,0,LWC V2.00 B727,2013-02-13 11:52:00,
2013-02-13 04:57:00,9.0,1.5,30.71,South,171,0.0,1.0,71,0.00,,,0.00,0,LWC V2.00 B727,2013-02-13 11:57:00,
2013-02-13 05:02:00,9.2,1.7,30.71,SSE,166,2.0,3.0,71,0.00,,,0.00,0,LWC V2.00 B727,2013-02-13 12:02:00,
2013-02-13 05:07:00,9.2,1.4,30.72,South,173,3.0,4.0,70,0.00,,,0.00,0,LWC V2.00 B727,2013-02-13 12:07:00,
2013-02-13 05:12:00,9.2,1.4,30.72,South,171,1.0,3.0,70,0.00,,,0.00,0,LWC V2.00 B727,2013-02-13 12:12:00,
2013-02-13 05:17:00,9.2,1.4,30.72,South,172,3.0,4.0,70,0.00,,,0.00,0,LWC V2.00 B727,2013-02-13 12:17:00,
2013-02-13 05:22:00,9.2,1.4,30.71,South,171,2.0,2.0,70,0.00,,,0.00,0,LWC V2.00 B727,2013-02-13 12:22:00,
2013-02-13 05:27:00,9.2,1.4,30.71,SSE,164,2.0,4.0,70,0.00,,,0.00,0,LWC V2.00 B727,2013-02-13 12:27:00,
2013-02-13 05:32:00,9.2,1.4,30.72,SSE,163,0.0,3.0,70,0.00,,,0.00,0,LWC V2.00 B727,2013-02-13 12:32:00,
2013-02-13 05:37:00,9.3,1.5,30.72,SSE,162,2.0,2.0,70,0.00,,,0.00,0,LWC V2.00 B727,2013-02-13 12:37:00,
2013-02-13 05:42:00,9.4,1.9,30.72,SSE,155,1.0,3.0,71,0.00,,,0.00,0,LWC V2.00 B727,2013-02-13 12:42:00,
2013-02-13 05:47:00,9.4,1.6,30.71,SSE,157,1.0,3.0,70,0.00,,,0.00,0,LWC V2.00 B727,2013-02-13 12:47:00,
2013-02-13 05:52:00,9.4,1.9,30.71,SSE,167,2.0,4.0,71,0.00,,,0.00,0,LWC V2.00 B727,2013-02-13 12:52:00,
2013-02-13 05:57:00,9.3,1.8,30.71,SSE,167,3.0,4.0,71,0.00,,,0.00,0,LWC V2.00 B727,2013-02-13 12:57:00,
2013-02-13 06:02:00,9.2,1.7,30.70,South,172,2.0,4.0,71,0.00,,,0.00,0,LWC V2.00 B727,2013-02-13 13:02:00,
2013-02-13 06:07:00,9.4,1.9,30.70,South,174,1.0,3.0,71,0.00,,,0.00,0,LWC V2.00 B727,2013-02-13 13:07:00,
2013-02-13 06:12:00,9.4,1.9,30.70,SSE,167,2.0,2.0,71,0.00,,,0.00,0,LWC V2.00 B727,2013-02-13 13:12:00,
2013-02-13 06:17:00,9.4,1.9,30.70,SSE,168,0.0,3.0,71,0.00,,,0.00,0,LWC V2.00 B727,2013-02-13 13:17:00,
2013-02-13 06:22:00,9.4,1.9,30.70,South,169,0.0,1.0,71,0.00,,,0.00,0,LWC V2.00 B727,2013-02-13 13:22:00,
2013-02-13 06:27:00,9.4,1.9,30.70,South,169,1.0,2.0,71,0.00,,,0.00,0,LWC V2.00 B727,2013-02-13 13:27:00,
2013-02-13 06:32:00,9.5,2.0,30.70,SSE,168,1.0,2.0,71,0.00,,,0.00,0,LWC V2.00 B727,2013-02-13 13:32:00,
2013-02-13 06:37:00,9.5,2.0,30.70,SSE,168,1.0,2.0,71,0.00,,,0.00,0,LWC V2.00 B727,2013-02-13 13:37:00,
2013-02-13 06:42:00,9.5,2.0,30.71,South,169,0.0,1.0,71,0.00,,,0.00,0,LWC V2.00 B727,2013-02-13 13:42:00,
2013-02-13 06:48:00,9.4,1.9,30.71,South,169,1.0,2.0,71,0.00,,,0.00,0,LWC V2.00 B727,2013-02-13 13:48:00,
2013-02-13 06:53:00,9.3,1.8,30.71,SSE,168,2.0,3.0,71,0.00,,,0.00,5,LWC V2.00 B727,2013-02-13 13:53:00,
2013-02-13 06:58:00,9.2,2.0,30.72,SSE,168,3.0,3.0,72,0.00,,,0.00,7,LWC V2.00 B727,2013-02-13 13:58:00,
2013-02-13 07:03:00,9.4,2.2,30.71,South,173,4.0,4.0,72,0.00,,,0.00,11,LWC V2.00 B727,2013-02-13 14:03:00,
2013-02-13 07:08:00,9.8,2.6,30.71,SSE,168,2.0,5.0,72,0.00,,,0.00,12,LWC V2.00 B727,2013-02-13 14:08:00,
2013-02-13 07:13:00,9.9,2.4,30.71,SSE,165,2.0,4.0,71,0.00,,,0.00,14,LWC V2.00 B727,2013-02-13 14:13:00,
2013-02-13 07:18:00,10.3,2.8,30.71,SSE,163,1.0,3.0,71,0.00,,,0.00,16,LWC V2.00 B727,2013-02-13 14:18:00,
2013-02-13 07:23:00,10.8,3.3,30.71,SSE,164,0.0,1.0,71,0.00,,,0.00,19,LWC V2.00 B727,2013-02-13 14:23:00,
2013-02-13 07:28:00,11.3,3.8,30.72,SSE,164,0.0,2.0,71,0.00,,,0.00,30,LWC V2.00 B727,2013-02-13 14:28:00,
2013-02-13 07:33:00,11.7,3.8,30.72,SSE,164,0.0,2.0,70,0.00,,,0.00,70,LWC V2.00 B727,2013-02-13 14:33:00,
2013-02-13 07:38:00,12.2,4.3,30.72,SSE,164,0.0,1.0,70,0.00,,,0.00,63,LWC V2.00 B727,2013-02-13 14:38:00,
2013-02-13 07:43:00,12.8,4.9,30.72,SSE,164,1.0,3.0,70,0.00,,,0.00,90,LWC V2.00 B727,2013-02-13 14:43:00,
2013-02-13 07:48:00,13.3,5.1,30.72,SSE,165,2.0,2.0,69,0.00,,,0.00,158,LWC V2.00 B727,2013-02-13 14:48:00,
2013-02-13 07:53:00,14.0,5.4,30.72,SSE,165,3.0,3.0,68,0.00,,,0.00,195,LWC V2.00 B727,2013-02-13 14:53:00,
2013-02-13 07:58:00,14.5,5.6,30.72,SSE,166,1.0,3.0,67,0.00,,,0.00,221,LWC V2.00 B727,2013-02-13 14:58:00,
2013-02-13 08:03:00,14.9,6.0,30.72,South,169,1.0,4.0,67,0.00,,,0.00,244,LWC V2.00 B727,2013-02-13 15:03:00,
2013-02-13 08:08:00,15.3,6.3,30.73,South,169,1.0,2.0,67,0.00,,,0.00,260,LWC V2.00 B727,2013-02-13 15:08:00,
2013-02-13 08:13:00,15.8,6.8,30.73,South,169,0.0,0.0,67,0.00,,,0.00,272,LWC V2.00 B727,2013-02-13 15:13:00,
2013-02-13 08:18:00,16.2,7.2,30.73,South,169,0.0,0.0,67,0.00,,,0.00,193,LWC V2.00 B727,2013-02-13 15:18:00,
2013-02-13 08:23:00,16.6,7.6,30.73,South,169,0.0,0.0,67,0.00,,,0.00,202,LWC V2.00 B727,2013-02-13 15:23:00,
2013-02-13 08:28:00,17.0,8.0,30.73,South,169,0.0,0.0,67,0.00,,,0.00,290,LWC V2.00 B727,2013-02-13 15:28:00,
2013-02-13 08:33:00,17.7,8.6,30.73,South,169,0.0,0.0,67,0.00,,,0.00,350,LWC V2.00 B727,2013-02-13 15:33:00,
2013-02-13 08:38:00,18.8,9.0,30.73,South,169,1.0,2.0,65,0.00,,,0.00,366,LWC V2.00 B727,2013-02-13 15:38:00,
2013-02-13 08:43:00,19.8,8.9,30.73,South,169,0.0,1.0,62,0.00,,,0.00,109,LWC V2.00 B727,2013-02-13 15:43:00,
2013-02-13 08:48:00,20.7,9.0,30.73,South,169,0.0,2.0,60,0.00,,,0.00,359,LWC V2.00 B727,2013-02-13 15:48:00,
2013-02-13 08:53:00,21.4,9.3,30.73,South,169,0.0,0.0,59,0.00,,,0.00,429,LWC V2.00 B727,2013-02-13 15:53:00,
2013-02-13 08:58:00,22.0,9.5,30.73,South,169,0.0,0.0,58,0.00,,,0.00,446,LWC V2.00 B727,2013-02-13 15:58:00,
2013-02-13 09:03:00,22.7,9.0,30.73,South,169,0.0,0.0,55,0.00,,,0.00,466,LWC V2.00 B727,2013-02-13 16:03:00,
2013-02-13 09:08:00,23.8,9.2,30.73,South,169,0.0,0.0,53,0.00,,,0.00,478,LWC V2.00 B727,2013-02-13 16:08:00,
2013-02-13 09:13:00,24.7,8.7,30.73,South,169,0.0,0.0,50,0.00,,,0.00,497,LWC V2.00 B727,2013-02-13 16:13:00,
2013-02-13 09:18:00,25.6,9.6,30.72,South,169,0.0,0.0,50,0.00,,,0.00,512,LWC V2.00 B727,2013-02-13 16:18:00,
2013-02-13 09:23:00,26.3,10.2,30.72,South,169,0.0,2.0,50,0.00,,,0.00,526,LWC V2.00 B727,2013-02-13 16:23:00,
2013-02-13 09:28:00,26.9,10.8,30.72,South,169,0.0,0.0,50,0.00,,,0.00,541,LWC V2.00 B727,2013-02-13 16:28:00,
2013-02-13 09:33:00,27.3,10.2,30.72,South,169,0.0,0.0,48,0.00,,,0.00,555,LWC V2.00 B727,2013-02-13 16:33:00,
2013-02-13 09:38:00,27.5,9.9,30.72,South,169,0.0,2.0,47,0.00,,,0.00,570,LWC V2.00 B727,2013-02-13 16:38:00,
2013-02-13 09:43:00,27.7,10.6,30.72,ENE,74,0.0,4.0,48,0.00,,,0.00,584,LWC V2.00 B727,2013-02-13 16:43:00,
2013-02-13 09:48:00,27.9,11.2,30.72,ENE,74,2.0,3.0,49,0.00,,,0.00,596,LWC V2.00 B727,2013-02-13 16:48:00,
2013-02-13 09:53:00,28.1,11.0,30.71,ENE,74,0.0,3.0,48,0.00,,,0.00,610,LWC V2.00 B727,2013-02-13 16:53:00,
2013-02-13 09:58:00,28.4,12.2,30.72,ENE,75,2.0,2.0,50,0.00,,,0.00,621,LWC V2.00 B727,2013-02-13 16:58:00,
2013-02-13 10:03:00,28.8,11.6,30.71,ENE,75,0.0,1.0,48,0.00,,,0.00,635,LWC V2.00 B727,2013-02-13 17:03:00,
2013-02-13 10:08:00,29.3,11.6,30.71,ENE,74,2.0,2.0,47,0.00,,,0.00,647,LWC V2.00 B727,2013-02-13 17:08:00,
2013-02-13 10:13:00,29.6,12.3,30.71,ENE,77,0.0,3.0,48,0.00,,,0.00,657,LWC V2.00 B727,2013-02-13 17:13:00,
2013-02-13 10:18:00,30.2,11.9,30.70,SSE,148,3.0,4.0,46,0.00,,,0.00,670,LWC V2.00 B727,2013-02-13 17:18:00,
2013-02-13 10:23:00,30.7,12.4,30.70,SE,145,0.0,3.0,46,0.00,,,0.00,680,LWC V2.00 B727,2013-02-13 17:23:00,
2013-02-13 10:28:00,31.3,12.5,30.70,SE,146,0.0,2.0,45,0.00,,,0.00,693,LWC V2.00 B727,2013-02-13 17:28:00,
2013-02-13 10:33:00,31.9,13.0,30.69,SE,145,0.0,2.0,45,0.00,,,0.00,701,LWC V2.00 B727,2013-02-13 17:33:00,
2013-02-13 10:38:00,32.5,12.0,30.69,SE,145,0.0,0.0,42,0.00,,,0.00,714,LWC V2.00 B727,2013-02-13 17:38:00,
2013-02-13 10:43:00,33.1,11.4,30.69,SE,146,0.0,0.0,40,0.00,,,0.00,722,LWC V2.00 B727,2013-02-13 17:43:00,
2013-02-13 10:48:00,33.5,13.4,30.69,North,5,2.0,3.0,43,0.00,,,0.00,731,LWC V2.00 B727,2013-02-13 17:48:00,
2013-02-13 10:53:00,33.7,13.1,30.69,North,5,0.0,0.0,42,0.00,,,0.00,742,LWC V2.00 B727,2013-02-13 17:53:00,
2013-02-13 10:58:00,34.0,12.8,30.70,North,0,0.0,2.0,41,0.00,,,0.00,747,LWC V2.00 B727,2013-02-13 17:58:00,
2013-02-13 11:03:00,34.2,14.6,30.69,WSW,244,2.0,3.0,44,0.00,,,0.00,754,LWC V2.00 B727,2013-02-13 18:03:00,
2013-02-13 11:08:00,34.4,13.2,30.69,NW,324,0.0,1.0,41,0.00,,,0.00,761,LWC V2.00 B727,2013-02-13 18:08:00,
2013-02-13 11:13:00,34.6,12.8,30.69,NW,321,0.0,4.0,40,0.00,,,0.00,765,LWC V2.00 B727,2013-02-13 18:13:00,
2013-02-13 11:18:00,35.1,14.9,30.68,NW,321,0.0,0.0,43,0.00,,,0.00,773,LWC V2.00 B727,2013-02-13 18:18:00,
2013-02-13 11:23:00,35.6,14.2,30.68,West,266,0.0,3.0,41,0.00,,,0.00,780,LWC V2.00 B727,2013-02-13 18:23:00,
2013-02-13 11:28:00,35.9,13.4,30.68,NW,326,2.0,2.0,39,0.00,,,0.00,786,LWC V2.00 B727,2013-02-13 18:28:00,
2013-02-13 11:33:00,35.7,13.2,30.68,NNW,338,2.0,4.0,39,0.00,,,0.00,789,LWC V2.00 B727,2013-02-13 18:33:00,
2013-02-13 11:38:00,35.7,14.3,30.68,North,355,0.0,4.0,41,0.00,,,0.00,793,LWC V2.00 B727,2013-02-13 18:38:00,
2013-02-13 11:43:00,36.1,14.1,30.67,North,355,0.0,2.0,40,0.00,,,0.00,796,LWC V2.00 B727,2013-02-13 18:43:00,
2013-02-13 11:48:00,36.4,14.4,30.67,North,5,0.0,0.0,40,0.00,,,0.00,802,LWC V2.00 B727,2013-02-13 18:48:00,
2013-02-13 11:53:00,36.8,15.3,30.67,North,5,4.0,4.0,41,0.00,,,0.00,803,LWC V2.00 B727,2013-02-13 18:53:00,
2013-02-13 11:58:00,36.5,13.9,30.67,NNW,347,2.0,3.0,39,0.00,,,0.00,803,LWC V2.00 B727,2013-02-13 18:58:00,
2013-02-13 12:03:00,36.4,15.0,30.67,North,355,2.0,5.0,41,0.00,,,0.00,805,LWC V2.00 B727,2013-02-13 19:03:00,
2013-02-13 12:08:00,36.5,16.7,30.66,NNE,13,4.0,4.0,44,0.00,,,0.00,803,LWC V2.00 B727,2013-02-13 19:08:00,
2013-02-13 12:13:00,36.8,17.5,30.66,SW,224,0.0,5.0,45,0.00,,,0.00,807,LWC V2.00 B727,2013-02-13 19:13:00,
2013-02-13 12:18:00,36.8,15.3,30.66,North,10,0.0,4.0,41,0.00,,,0.00,805,LWC V2.00 B727,2013-02-13 19:18:00,
2013-02-13 12:23:00,36.7,15.2,30.66,NNW,337,2.0,5.0,41,0.00,,,0.00,805,LWC V2.00 B727,2013-02-13 19:23:00,
2013-02-13 12:28:00,36.8,15.3,30.65,North,355,3.0,5.0,41,0.00,,,0.00,805,LWC V2.00 B727,2013-02-13 19:28:00,
2013-02-13 12:33:00,37.0,16.1,30.65,WSW,256,2.0,4.0,42,0.00,,,0.00,803,LWC V2.00 B727,2013-02-13 19:33:00,
2013-02-13 12:38:00,37.3,17.4,30.64,SW,230,2.0,4.0,44,0.00,,,0.00,802,LWC V2.00 B727,2013-02-13 19:38:00,
2013-02-13 12:43:00,37.9,16.3,30.64,SW,236,0.0,1.0,41,0.00,,,0.00,800,LWC V2.00 B727,2013-02-13 19:43:00,
2013-02-13 12:48:00,38.3,16.1,30.63,North,350,1.0,4.0,40,0.00,,,0.00,800,LWC V2.00 B727,2013-02-13 19:48:00,
2013-02-13 12:53:00,38.2,16.6,30.62,SSW,203,1.0,6.0,41,0.00,,,0.00,800,LWC V2.00 B727,2013-02-13 19:53:00,
2013-02-13 12:58:00,38.5,16.9,30.62,SW,219,0.0,2.0,41,0.00,,,0.00,809,LWC V2.00 B727,2013-02-13 19:58:00,
2013-02-13 13:03:00,38.8,16.6,30.62,NW,325,3.0,4.0,40,0.00,,,0.00,830,LWC V2.00 B727,2013-02-13 20:03:00,
2013-02-13 13:08:00,38.4,15.6,30.61,NNW,328,1.0,2.0,39,0.00,,,0.00,738,LWC V2.00 B727,2013-02-13 20:08:00,
2013-02-13 13:13:00,38.0,16.4,30.61,NNW,344,1.0,6.0,41,0.00,,,0.00,795,LWC V2.00 B727,2013-02-13 20:13:00,
2013-02-13 13:18:00,37.9,16.9,30.61,WNW,294,1.0,3.0,42,0.00,,,0.00,775,LWC V2.00 B727,2013-02-13 20:18:00,
2013-02-13 13:23:00,38.3,16.1,30.61,NNE,19,2.0,3.0,40,0.00,,,0.00,770,LWC V2.00 B727,2013-02-13 20:23:00,
2013-02-13 13:28:00,38.5,16.9,30.60,SSW,209,4.0,5.0,41,0.00,,,0.00,761,LWC V2.00 B727,2013-02-13 20:28:00,
2013-02-13 13:33:00,38.9,17.8,30.60,WSW,240,0.0,5.0,42,0.00,,,0.00,754,LWC V2.00 B727,2013-02-13 20:33:00,
2013-02-13 13:38:00,39.4,17.1,30.60,North,10,2.0,6.0,40,0.00,,,0.00,745,LWC V2.00 B727,2013-02-13 20:38:00,
2013-02-13 13:43:00,39.7,18.0,30.60,South,180,2.0,7.0,41,0.00,,,0.00,738,LWC V2.00 B727,2013-02-13 20:43:00,
2013-02-13 13:48:00,39.6,17.3,30.60,SW,235,5.0,5.0,40,0.00,,,0.00,729,LWC V2.00 B727,2013-02-13 20:48:00,
2013-02-13 13:53:00,39.8,17.5,30.59,SW,219,3.0,6.0,40,0.00,,,0.00,722,LWC V2.00 B727,2013-02-13 20:53:00,
2013-02-13 13:58:00,39.9,17.0,30.60,SW,232,2.0,4.0,39,0.00,,,0.00,715,LWC V2.00 B727,2013-02-13 20:58:00,
2013-02-13 14:03:00,40.0,17.1,30.59,SW,227,5.0,6.0,39,0.00,,,0.00,705,LWC V2.00 B727,2013-02-13 21:03:00,
2013-02-13 14:08:00,40.1,17.2,30.59,WSW,240,1.0,3.0,39,0.00,,,0.00,696,LWC V2.00 B727,2013-02-13 21:08:00,
2013-02-13 14:13:00,40.2,16.0,30.59,North,0,3.0,5.0,37,0.00,,,0.00,684,LWC V2.00 B727,2013-02-13 21:13:00,
2013-02-13 14:18:00,40.2,18.4,30.59,North,350,1.0,3.0,41,0.00,,,0.00,679,LWC V2.00 B727,2013-02-13 21:18:00,
2013-02-13 14:23:00,40.1,18.3,30.58,SSW,207,0.0,7.0,41,0.00,,,0.00,664,LWC V2.00 B727,2013-02-13 21:23:00,
2013-02-13 14:28:00,40.1,19.4,30.58,NNW,348,1.0,6.0,43,0.00,,,0.00,654,LWC V2.00 B727,2013-02-13 21:28:00,
2013-02-13 14:33:00,39.7,16.2,30.58,North,5,2.0,5.0,38,0.00,,,0.00,645,LWC V2.00 B727,2013-02-13 21:33:00,
2013-02-13 14:38:00,39.6,17.3,30.58,WSW,242,0.0,2.0,40,0.00,,,0.00,633,LWC V2.00 B727,2013-02-13 21:38:00,
2013-02-13 14:43:00,39.9,16.4,30.57,NNW,345,2.0,4.0,38,0.00,,,0.00,605,LWC V2.00 B727,2013-02-13 21:43:00,
2013-02-13 14:48:00,40.0,17.1,30.57,SSW,206,2.0,4.0,39,0.00,,,0.00,603,LWC V2.00 B727,2013-02-13 21:48:00,
2013-02-13 14:53:00,40.4,17.4,30.57,North,9,5.0,5.0,39,0.00,,,0.00,584,LWC V2.00 B727,2013-02-13 21:53:00,
2013-02-13 14:58:00,40.2,16.0,30.58,NNE,14,0.0,2.0,37,0.00,,,0.00,577,LWC V2.00 B727,2013-02-13 21:58:00,
2013-02-13 15:03:00,40.5,17.5,30.58,SSW,213,0.0,7.0,39,0.00,,,0.00,554,LWC V2.00 B727,2013-02-13 22:03:00,
2013-02-13 15:08:00,40.6,15.8,30.57,North,355,4.0,7.0,36,0.00,,,0.00,564,LWC V2.00 B727,2013-02-13 22:08:00,
2013-02-13 15:13:00,40.1,15.9,30.57,NNE,14,2.0,3.0,37,0.00,,,0.00,529,LWC V2.00 B727,2013-02-13 22:13:00,
2013-02-13 15:18:00,39.8,16.9,30.57,SW,233,0.0,7.0,39,0.00,,,0.00,436,LWC V2.00 B727,2013-02-13 22:18:00,
2013-02-13 15:23:00,39.9,17.0,30.57,SSW,201,2.0,3.0,39,0.00,,,0.00,448,LWC V2.00 B727,2013-02-13 22:23:00,
2013-02-13 15:28:00,40.1,17.7,30.57,SW,227,2.0,5.0,40,0.00,,,0.00,476,LWC V2.00 B727,2013-02-13 22:28:00,
2013-02-13 15:33:00,40.1,17.7,30.56,North,9,0.0,1.0,40,0.00,,,0.00,385,LWC V2.00 B727,2013-02-13 22:33:00,
2013-02-13 15:38:00,40.2,17.8,30.57,SW,233,3.0,3.0,40,0.00,,,0.00,461,LWC V2.00 B727,2013-02-13 22:38:00,
2013-02-13 15:43:00,40.3,16.7,30.56,West,271,3.0,4.0,38,0.00,,,0.00,425,LWC V2.00 B727,2013-02-13 22:43:00,
2013-02-13 15:48:00,40.4,16.2,30.56,North,0,1.0,4.0,37,0.00,,,0.00,397,LWC V2.00 B727,2013-02-13 22:48:00,
2013-02-13 15:53:00,40.4,18.0,30.56,SW,233,1.0,2.0,40,0.00,,,0.00,417,LWC V2.00 B727,2013-02-13 22:53:00,
2013-02-13 15:58:00,40.6,15.8,30.56,North,9,1.0,6.0,36,0.00,,,0.00,401,LWC V2.00 B727,2013-02-13 22:58:00,
2013-02-13 16:03:00,40.5,16.3,30.56,SSW,207,1.0,3.0,37,0.00,,,0.00,388,LWC V2.00 B727,2013-02-13 23:03:00,
2013-02-13 16:08:00,40.8,16.6,30.56,SW,214,0.0,6.0,37,0.00,,,0.00,381,LWC V2.00 B727,2013-02-13 23:08:00,
2013-02-13 16:13:00,41.0,16.7,30.56,NNE,22,3.0,6.0,37,0.00,,,0.00,373,LWC V2.00 B727,2013-02-13 23:13:00,
2013-02-13 16:18:00,40.6,17.0,30.56,SSW,213,6.0,6.0,38,0.00,,,0.00,360,LWC V2.00 B727,2013-02-13 23:18:00,
2013-02-13 16:23:00,40.1,15.9,30.56,NNE,32,5.0,6.0,37,0.00,,,0.00,343,LWC V2.00 B727,2013-02-13 23:23:00,
2013-02-13 16:28:00,39.5,16.0,30.56,North,0,1.0,6.0,38,0.00,,,0.00,315,LWC V2.00 B727,2013-02-13 23:28:00,
2013-02-13 16:33:00,39.2,16.3,30.56,NNW,333,0.0,6.0,39,0.00,,,0.00,285,LWC V2.00 B727,2013-02-13 23:33:00,
2013-02-13 16:38:00,38.8,15.4,30.56,WSW,250,3.0,7.0,38,0.00,,,0.00,255,LWC V2.00 B727,2013-02-13 23:38:00,
2013-02-13 16:43:00,38.6,15.8,30.57,WSW,256,0.0,5.0,39,0.00,,,0.00,221,LWC V2.00 B727,2013-02-13 23:43:00,
2013-02-13 16:48:00,38.4,15.0,30.57,WSW,257,0.0,3.0,38,0.00,,,0.00,160,LWC V2.00 B727,2013-02-13 23:48:00,
2013-02-13 16:53:00,38.2,15.4,30.57,WSW,253,0.0,2.0,39,0.00,,,0.00,167,LWC V2.00 B727,2013-02-13 23:53:00,
2013-02-13 16:58:00,38.0,15.9,30.58,WSW,240,0.0,5.0,40,0.00,,,0.00,137,LWC V2.00 B727,2013-02-13 23:58:00,
2013-02-13 17:03:00,37.7,16.1,30.57,WSW,238,0.0,3.0,41,0.00,,,0.00,105,LWC V2.00 B727,2013-02-14 00:03:00,
2013-02-13 17:08:00,37.4,15.9,30.57,SW,234,0.0,5.0,41,0.00,,,0.00,79,LWC V2.00 B727,2013-02-14 00:08:00,
2013-02-13 17:13:00,37.2,15.7,30.57,WSW,240,2.0,4.0,41,0.00,,,0.00,58,LWC V2.00 B727,2013-02-14 00:13:00,
2013-02-13 17:18:00,36.8,15.3,30.57,WSW,250,2.0,6.0,41,0.00,,,0.00,37,LWC V2.00 B727,2013-02-14 00:18:00,
2013-02-13 17:23:00,36.4,15.5,30.57,WSW,251,0.0,3.0,42,0.00,,,0.00,12,LWC V2.00 B727,2013-02-14 00:23:00,
2013-02-13 17:28:00,36.0,15.2,30.57,WSW,237,1.0,3.0,42,0.00,,,0.00,11,LWC V2.00 B727,2013-02-14 00:28:00,
2013-02-13 17:33:00,35.6,14.8,30.57,WSW,237,0.0,1.0,42,0.00,,,0.00,9,LWC V2.00 B727,2013-02-14 00:33:00,
2013-02-13 17:38:00,35.1,14.9,30.58,WSW,237,0.0,1.0,43,0.00,,,0.00,7,LWC V2.00 B727,2013-02-14 00:38:00,
2013-02-13 17:43:00,34.6,14.4,30.58,WSW,237,0.0,0.0,43,0.00,,,0.00,5,LWC V2.00 B727,2013-02-14 00:43:00,
2013-02-13 17:48:00,34.1,14.5,30.58,WSW,237,0.0,1.0,44,0.00,,,0.00,0,LWC V2.00 B727,2013-02-14 00:48:00,
2013-02-13 17:53:00,33.5,14.5,30.58,WSW,237,0.0,0.0,45,0.00,,,0.00,0,LWC V2.00 B727,2013-02-14 00:53:00,
2013-02-13 17:58:00,32.6,14.1,30.59,WSW,237,0.0,1.0,46,0.00,,,0.00,0,LWC V2.00 B727,2013-02-14 00:58:00,
2013-02-13 18:03:00,31.3,14.4,30.59,WSW,237,0.0,1.0,49,0.00,,,0.00,0,LWC V2.00 B727,2013-02-14 01:03:00,
2013-02-13 18:08:00,30.4,14.5,30.59,WSW,237,0.0,0.0,51,0.00,,,0.00,0,LWC V2.00 B727,2013-02-14 01:08:00,
2013-02-13 18:13:00,29.9,14.4,30.60,WSW,237,0.0,0.0,52,0.00,,,0.00,0,LWC V2.00 B727,2013-02-14 01:13:00,
2013-02-13 18:18:00,29.0,14.0,30.60,WSW,237,1.0,1.0,53,0.00,,,0.00,0,LWC V2.00 B727,2013-02-14 01:18:00,
2013-02-13 18:23:00,28.1,14.0,30.60,SW,218,1.0,2.0,55,0.00,,,0.00,0,LWC V2.00 B727,2013-02-14 01:23:00,
2013-02-13 18:28:00,27.8,13.8,30.60,SW,217,1.0,3.0,55,0.00,,,0.00,0,LWC V2.00 B727,2013-02-14 01:28:00,
2013-02-13 18:33:00,27.7,13.7,30.61,SW,217,1.0,3.0,55,0.00,,,0.00,0,LWC V2.00 B727,2013-02-14 01:33:00,
2013-02-13 18:38:00,27.6,14.0,30.60,SW,215,1.0,2.0,56,0.00,,,0.00,0,LWC V2.00 B727,2013-02-14 01:38:00,
2013-02-13 18:43:00,27.5,13.9,30.61,SW,215,0.0,0.0,56,0.00,,,0.00,0,LWC V2.00 B727,2013-02-14 01:43:00,
2013-02-13 18:48:00,27.3,13.7,30.61,SW,215,0.0,0.0,56,0.00,,,0.00,0,LWC V2.00 B727,2013-02-14 01:48:00,
2013-02-13 18:53:00,27.0,13.8,30.61,SW,215,0.0,2.0,57,0.00,,,0.00,0,LWC V2.00 B727,2013-02-14 01:53:00,
2013-02-13 18:58:00,26.8,14.0,30.61,SW,215,0.0,2.0,58,0.00,,,0.00,0,LWC V2.00 B727,2013-02-14 01:58:00,
2013-02-13 19:03:00,26.9,14.5,30.61,SW,214,3.0,3.0,59,0.00,,,0.00,0,LWC V2.00 B727,2013-02-14 02:03:00,
2013-02-13 19:08:00,27.1,14.7,30.61,SSW,205,0.0,2.0,59,0.00,,,0.00,0,LWC V2.00 B727,2013-02-14 02:08:00,
2013-02-13 19:13:00,27.2,14.8,30.60,SSW,205,1.0,4.0,59,0.00,,,0.00,0,LWC V2.00 B727,2013-02-14 02:13:00,
2013-02-13 19:18:00,27.2,14.8,30.61,SSW,205,0.0,3.0,59,0.00,,,0.00,0,LWC V2.00 B727,2013-02-14 02:18:00,
2013-02-13 19:23:00,27.2,14.8,30.60,SSW,205,3.0,3.0,59,0.00,,,0.00,0,LWC V2.00 B727,2013-02-14 02:23:00,
2013-02-13 19:28:00,27.2,14.8,30.60,SSW,205,0.0,2.0,59,0.00,,,0.00,0,LWC V2.00 B727,2013-02-14 02:28:00,
2013-02-13 19:33:00,26.9,14.5,30.60,SSW,203,0.0,2.0,59,0.00,,,0.00,0,LWC V2.00 B727,2013-02-14 02:33:00,
2013-02-13 19:38:00,26.3,14.3,30.60,SSW,202,0.0,1.0,60,0.00,,,0.00,0,LWC V2.00 B727,2013-02-14 02:38:00,
2013-02-13 19:43:00,25.8,14.2,30.61,SSW,202,0.0,2.0,61,0.00,,,0.00,0,LWC V2.00 B727,2013-02-14 02:43:00,
2013-02-13 19:48:00,25.4,13.9,30.61,SSW,202,0.0,1.0,61,0.00,,,0.00,0,LWC V2.00 B727,2013-02-14 02:48:00,
2013-02-13 19:53:00,25.2,13.7,30.61,SSW,202,0.0,1.0,61,0.00,,,0.00,0,LWC V2.00 B727,2013-02-14 02:53:00,
2013-02-13 19:58:00,24.9,13.8,30.61,SSW,202,0.0,0.0,62,0.00,,,0.00,0,LWC V2.00 B727,2013-02-14 02:58:00,
2013-02-13 20:03:00,24.6,13.1,30.61,SSW,202,0.0,0.0,61,0.00,,,0.00,0,LWC V2.00 B727,2013-02-14 03:03:00,
2013-02-13 20:08:00,24.3,13.2,30.60,SSW,202,0.0,0.0,62,0.00,,,0.00,0,LWC V2.00 B727,2013-02-14 03:08:00,
2013-02-13 20:13:00,24.0,12.9,30.61,SSW,202,0.0,0.0,62,0.00,,,0.00,0,LWC V2.00 B727,2013-02-14 03:13:00,
2013-02-13 20:18:00,23.1,12.4,30.61,SSW,202,0.0,0.0,63,0.00,,,0.00,0,LWC V2.00 B727,2013-02-14 03:18:00,
2013-02-13 20:23:00,22.6,11.9,30.61,SSW,202,0.0,0.0,63,0.00,,,0.00,0,LWC V2.00 B727,2013-02-14 03:23:00,
2013-02-13 20:28:00,22.2,11.9,30.62,SSW,202,0.0,0.0,64,0.00,,,0.00,0,LWC V2.00 B727,2013-02-14 03:28:00,
2013-02-13 20:33:00,21.8,12.6,30.61,SSW,202,0.0,1.0,67,0.00,,,0.00,0,LWC V2.00 B727,2013-02-14 03:33:00,
2013-02-13 20:38:00,21.6,12.7,30.61,SSW,202,0.0,1.0,68,0.00,,,0.00,0,LWC V2.00 B727,2013-02-14 03:38:00,
2013-02-13 20:43:00,21.5,12.6,30.61,SSW,202,0.0,2.0,68,0.00,,,0.00,0,LWC V2.00 B727,2013-02-14 03:43:00,
2013-02-13 20:49:00,21.5,12.9,30.61,SSW,202,0.0,1.0,69,0.00,,,0.00,0,LWC V2.00 B727,2013-02-14 03:49:00,
2013-02-13 20:55:00,21.6,13.0,30.61,SSW,202,0.0,2.0,69,0.00,,,0.00,0,LWC V2.00 B727,2013-02-14 03:55:00,
2013-02-13 21:00:00,21.6,12.7,30.61,SSW,202,0.0,1.0,68,0.00,,,0.00,0,LWC V2.00 B727,2013-02-14 04:00:00,
2013-02-13 21:05:00,21.6,12.7,30.61,SSW,202,0.0,1.0,68,0.00,,,0.00,0,LWC V2.00 B727,2013-02-14 04:05:00,
2013-02-13 21:10:00,21.3,12.4,30.62,SSW,202,1.0,1.0,68,0.00,,,0.00,0,LWC V2.00 B727,2013-02-14 04:10:00,
2013-02-13 21:15:00,21.1,12.5,30.62,SSW,202,0.0,2.0,69,0.00,,,0.00,0,LWC V2.00 B727,2013-02-14 04:15:00,
2013-02-13 21:20:00,21.0,12.8,30.61,SSW,201,2.0,4.0,70,0.00,,,0.00,0,LWC V2.00 B727,2013-02-14 04:20:00,
2013-02-13 21:25:00,20.9,12.4,30.61,SSW,200,1.0,3.0,69,0.00,,,0.00,0,LWC V2.00 B727,2013-02-14 04:25:00,
2013-02-13 21:30:00,20.8,12.3,30.61,SSW,200,0.0,1.0,69,0.00,,,0.00,0,LWC V2.00 B727,2013-02-14 04:30:00,
2013-02-13 21:35:00,20.7,12.2,30.62,SSW,199,1.0,1.0,69,0.00,,,0.00,0,LWC V2.00 B727,2013-02-14 04:35:00,
2013-02-13 21:40:00,20.7,12.2,30.62,SSW,200,0.0,1.0,69,0.00,,,0.00,0,LWC V2.00 B727,2013-02-14 04:40:00,
2013-02-13 21:45:00,20.4,11.9,30.62,SSW,200,0.0,2.0,69,0.00,,,0.00,0,LWC V2.00 B727,2013-02-14 04:45:00,
2013-02-13 21:50:00,20.3,12.1,30.62,SSW,199,1.0,2.0,70,0.00,,,0.00,0,LWC V2.00 B727,2013-02-14 04:50:00,
2013-02-13 21:55:00,20.4,12.2,30.62,SSW,199,2.0,3.0,70,0.00,,,0.00,0,LWC V2.00 B727,2013-02-14 04:55:00,
2013-02-13 22:00:00,20.3,12.1,30.62,SSW,199,1.0,2.0,70,0.00,,,0.00,0,LWC V2.00 B727,2013-02-14 05:00:00,
2013-02-13 22:05:00,20.2,12.0,30.62,SSW,198,2.0,3.0,70,0.00,,,0.00,0,LWC V2.00 B727,2013-02-14 05:05:00,
2013-02-13 22:10:00,20.2,12.0,30.62,SSW,197,0.0,1.0,70,0.00,,,0.00,0,LWC V2.00 B727,2013-02-14 05:10:00,
2013-02-13 22:15:00,20.1,11.9,30.61,SSW,197,0.0,1.0,70,0.00,,,0.00,0,LWC V2.00 B727,2013-02-14 05:15:00,
2013-02-13 22:20:00,19.8,11.6,30.61,SSW,197,2.0,2.0,70,0.00,,,0.00,0,LWC V2.00 B727,2013-02-14 05:20:00,
2013-02-13 22:25:00,19.7,11.8,30.61,SSW,196,0.0,2.0,71,0.00,,,0.00,0,LWC V2.00 B727,2013-02-14 05:25:00,
2013-02-13 22:30:00,19.7,11.5,30.61,SSW,196,3.0,4.0,70,0.00,,,0.00,0,LWC V2.00 B727,2013-02-14 05:30:00,
2013-02-13 22:35:00,19.5,11.3,30.61,SSW,197,2.0,2.0,70,0.00,,,0.00,0,LWC V2.00 B727,2013-02-14 05:35:00,
2013-02-13 22:40:00,19.6,11.4,30.61,SSW,196,1.0,2.0,70,0.00,,,0.00,0,LWC V2.00 B727,2013-02-14 05:40:00,
2013-02-13 22:45:00,19.7,11.5,30.61,SSW,196,0.0,2.0,70,0.00,,,0.00,0,LWC V2.00 B727,2013-02-14 05:45:00,
2013-02-13 22:50:00,19.7,11.5,30.61,SSW,196,2.0,2.0,70,0.00,,,0.00,0,LWC V2.00 B727,2013-02-14 05:50:00,
2013-02-13 22:55:00,19.6,11.4,30.61,SSW,196,1.0,2.0,70,0.00,,,0.00,0,LWC V2.00 B727,2013-02-14 05:55:00,
2013-02-13 23:00:00,19.4,11.2,30.61,SSW,196,1.0,2.0,70,0.00,,,0.00,0,LWC V2.00 B727,2013-02-14 06:00:00,
2013-02-13 23:05:00,19.3,11.1,30.61,SSW,196,1.0,3.0,70,0.00,,,0.00,0,LWC V2.00 B727,2013-02-14 06:05:00,
2013-02-13 23:10:00,19.3,11.1,30.61,SSW,196,0.0,2.0,70,0.00,,,0.00,0,LWC V2.00 B727,2013-02-14 06:10:00,
2013-02-13 23:15:00,19.3,11.1,30.61,SSW,195,1.0,2.0,70,0.00,,,0.00,0,LWC V2.00 B727,2013-02-14 06:15:00,
2013-02-13 23:20:00,19.4,11.2,30.61,SSW,196,0.0,2.0,70,0.00,,,0.00,0,LWC V2.00 B727,2013-02-14 06:20:00,
2013-02-13 23:25:00,19.3,11.1,30.61,SSW,196,1.0,2.0,70,0.00,,,0.00,0,LWC V2.00 B727,2013-02-14 06:25:00,
2013-02-13 23:30:00,19.1,11.0,30.61,SSW,195,4.0,5.0,70,0.00,,,0.00,0,LWC V2.00 B727,2013-02-14 06:30:00,
2013-02-13 23:35:00,19.0,10.9,30.61,SSW,195,2.0,2.0,70,0.00,,,0.00,0,LWC V2.00 B727,2013-02-14 06:35:00,
2013-02-13 23:40:00,19.0,10.9,30.61,SSW,195,0.0,2.0,70,0.00,,,0.00,0,LWC V2.00 B727,2013-02-14 06:40:00,
2013-02-13 23:45:00,19.0,10.9,30.61,SSW,195,1.0,2.0,70,0.00,,,0.00,0,LWC V2.00 B727,2013-02-14 06:45:00,
2013-02-13 23:50:00,19.1,11.0,30.61,SSW,195,1.0,3.0,70,0.00,,,0.00,0,LWC V2.00 B727,2013-02-14 06:50:00,
2013-02-13 23:55:00,19.0,10.5,30.61,SSW,195,1.0,3.0,69,0.00,,,0.00,0,LWC V2.00 B727,2013-02-14 06:55:00,